Weather History for Cairns, QU

Change the Weather History Date:

Saturday, November 10, 2012

  Actual Average Record
Temperature  
Mean Temperature 76 °F -  
Max Temperature 84 °F 87 °F 91 °F (2007)
Min Temperature 68 °F 73 °F 68 °F (2012)
Cooling Degree Days 11    
Growing Degree Days 26 (Base 50)    
Moisture  
Dew Point 69 °F    
Average Humidity 79    
Maximum Humidity 94    
Minimum Humidity 54    
Precipitation  
Precipitation 0.03 in 0.17 in - ()
Sea Level Pressure  
Sea Level Pressure 29.91 in    
Wind  
Wind Speed 5 mph ()    
Max Wind Speed 15 mph    
Max Gust Speed -    
Visibility 6.8 miles    
Events Rain    
Averages and records for this station are not official NWS values.
T = Trace of Precipitation, MM = Missing Value Source: Averaged Metar Reports

Daily Weather History Graph

Daily Weather History Graph

Search for Another Location

Airport:

Trip Planner

Search our weather history database for the weather conditions in past years. The results will help you decide how hot, cold, wet, or windy it might be!

Date:

Astronomy

Nov. 10, 2012 Rise Set
Actual Time 5:35 AM EST 6:26 PM EST
Civil Twilight 5:12 AM EST 6:49 PM EST
Nautical Twilight 4:46 AM EST 7:16 PM EST
Astronomical Twilight 4:18 AM EST 7:43 PM EST
Moon 2:15 AM EST (11/10) 2:43 PM EST (11/10)
Length of Visible Light 13h 36m
Length of Day
12h 50m
Waning Crescent, 20% of the Moon is Illuminated
Nov 10
Waning Crescent
Nov 14
New
Nov 21
First Quarter
Nov 29
Full
Dec 7
Last Quarter

Hourly Weather History & Observations

Time (EST) Temp. Heat Index Dew Point Humidity Pressure Visibility Wind Dir Wind Speed Gust Speed Precip Events Conditions
12:00 AM 74 °F - 65 °F 68% 29.93 in - SE 5.8 mph - -  
12:00 AM 73.4 °F - 66.2 °F 78% 29.92 in 6.2 mi SE 5.8 mph - N/A   Partly Cloudy
12:30 AM 73.4 °F - 66.2 °F 78% 29.92 in 6.2 mi SE 2.3 mph - N/A   Partly Cloudy
1:00 AM 70 °F - 66 °F 84% 29.91 in - Calm Calm - -  
1:00 AM 69.8 °F - 66.2 °F 88% 29.89 in 6.2 mi Calm Calm - N/A   Partly Cloudy
1:30 AM 69.8 °F - 66.2 °F 88% 29.89 in 6.2 mi North 1.2 mph - N/A   Partly Cloudy
2:00 AM 75.2 °F - 66.2 °F 73% 29.89 in 6.2 mi SSE 6.9 mph - N/A   Partly Cloudy
2:30 AM 73.4 °F - 66.2 °F 78% 29.89 in 6.2 mi SE 6.9 mph - N/A   Partly Cloudy
3:00 AM 72 °F - 67 °F 79% 29.88 in - SE 6.9 mph - -  
3:00 AM 71.6 °F - 66.2 °F 83% 29.86 in 6.2 mi SE 6.9 mph - N/A   Partly Cloudy
3:30 AM 71.6 °F - 66.2 °F 83% 29.89 in 6.2 mi SE 9.2 mph - N/A   Partly Cloudy
4:00 AM 72 °F - 66 °F 76% 29.89 in - SE 8.1 mph - -  
4:00 AM 71.6 °F - 66.2 °F 83% 29.89 in 6.2 mi SE 8.1 mph - N/A   Partly Cloudy
4:30 AM 71.6 °F - 66.2 °F 83% 29.89 in 6.2 mi SE 3.5 mph - N/A   Scattered Clouds
5:00 AM 69.8 °F - 66.2 °F 88% 29.89 in 6.2 mi Calm Calm - N/A   Mostly Cloudy
5:30 AM 69.8 °F - 66.2 °F 88% 29.89 in 6.2 mi SE 3.5 mph - N/A   Mostly Cloudy
6:00 AM 70 °F - 67 °F 87% 29.91 in 16 mi WNW 1.2 mph - -   Scattered Clouds
6:00 AM 69.8 °F - 66.2 °F 88% 29.89 in 6.2 mi WNW 1.2 mph - N/A   Mostly Cloudy
6:30 AM 73.4 °F - 66.2 °F 78% 29.92 in 6.2 mi South 5.8 mph - N/A   Mostly Cloudy
7:00 AM 75 °F - 67 °F 69% 29.94 in - South 5.8 mph - -  
7:00 AM 75.2 °F - 66.2 °F 73% 29.92 in 6.2 mi South 5.8 mph - N/A   Mostly Cloudy
7:30 AM 75.2 °F - 68.0 °F 78% 29.95 in 6.2 mi SSE 8.1 mph - N/A   Mostly Cloudy
8:00 AM 75.2 °F - 68.0 °F 78% 29.95 in 6.2 mi SE 10.4 mph - N/A   Mostly Cloudy
8:30 AM 78.8 °F - 68.0 °F 69% 29.95 in 6.2 mi SSE 6.9 mph - N/A   Mostly Cloudy
9:00 AM 79 °F - 69 °F 63% 29.96 in 16 mi SE 12.7 mph - -   Partly Cloudy
9:00 AM 78.8 °F - 68.0 °F 69% 29.95 in 6.2 mi SE 12.7 mph - N/A   Mostly Cloudy
9:30 AM 80.6 °F 83.2 °F 68.0 °F 65% 29.95 in 6.2 mi South 10.4 mph - N/A   Mostly Cloudy
10:00 AM 83 °F - 69 °F 54% 29.96 in - SSE 9.2 mph - -  
10:00 AM 84.2 °F 88.4 °F 69.8 °F 62% 29.95 in 6.2 mi SSE 9.2 mph - N/A   Mostly Cloudy
10:29 AM 77.0 °F - 71.6 °F 83% 29.95 in 3.7 mi East 15.0 mph - N/A Rain Light Rain Showers
10:30 AM 77.0 °F - 71.6 °F 83% 29.95 in 3.7 mi East 15.0 mph - N/A Rain Light Rain Showers
11:00 AM 75.2 °F - 73.4 °F 94% 29.95 in 5.0 mi South 6.9 mph - N/A   Mostly Cloudy
11:30 AM 77.0 °F - 71.6 °F 83% 29.92 in 6.2 mi South 9.2 mph - N/A   Mostly Cloudy
12:00 PM 79 °F - 71 °F 69% 29.93 in 12 mi South 3.5 mph - -   Overcast
12:00 PM 78.8 °F - 69.8 °F 74% 29.92 in 6.2 mi South 3.5 mph - N/A   Mostly Cloudy
12:30 PM 78.8 °F - 71.6 °F 78% 29.92 in 6.2 mi West 4.6 mph - N/A   Mostly Cloudy
1:00 PM 79 °F - 70 °F 68% 29.91 in - West 6.9 mph - -  
1:00 PM 78.8 °F - 69.8 °F 74% 29.89 in 6.2 mi West 6.9 mph - N/A   Mostly Cloudy
2:00 PM 75.2 °F - 71.6 °F 89% 29.89 in 6.2 mi Calm Calm - N/A   Mostly Cloudy
2:30 PM 75.2 °F - 71.6 °F 89% 29.89 in 6.2 mi Calm Calm - N/A   Mostly Cloudy
3:00 PM 76 °F - 72 °F 86% 29.88 in 16 mi WNW 5.8 mph - -   Partly Cloudy
3:00 PM 75.2 °F - 73.4 °F 94% 29.89 in 6.2 mi WNW 5.8 mph - N/A   Mostly Cloudy
3:30 PM 77.0 °F - 73.4 °F 89% 29.86 in 6.2 mi NNW 1.2 mph - N/A   Overcast
4:00 PM 77 °F - 72 °F 79% 29.88 in - WNW 5.8 mph - -  
4:00 PM 77.0 °F - 71.6 °F 83% 29.86 in 6.2 mi WNW 5.8 mph - N/A   Mostly Cloudy
4:30 PM 77.0 °F - 71.6 °F 83% 29.86 in 6.2 mi West 2.3 mph - N/A   Mostly Cloudy
5:00 PM 78.8 °F - 71.6 °F 78% 29.86 in 6.2 mi Calm Calm - N/A   Overcast
5:30 PM 77.0 °F - 71.6 °F 83% 29.89 in 6.2 mi Calm Calm - N/A   Overcast
6:00 PM 77 °F - 71 °F 76% 29.90 in - Calm Calm - -  
6:00 PM 77.0 °F - 71.6 °F 83% 29.89 in 6.2 mi Calm Calm - N/A   Mostly Cloudy
6:30 PM 77.0 °F - 71.6 °F 83% 29.89 in 6.2 mi Calm Calm - N/A   Overcast
7:00 PM 76 °F - 70 °F 76% 29.92 in - SSE 2.3 mph - -  
7:00 PM 77.0 °F - 69.8 °F 78% 29.92 in 6.2 mi SSE 2.3 mph - N/A   Overcast
7:30 PM 77.0 °F - 69.8 °F 78% 29.92 in 6.2 mi SSE 5.8 mph - N/A   Overcast
8:00 PM 77.0 °F - 69.8 °F 78% 29.92 in 6.2 mi SSE 5.8 mph - N/A   Overcast
8:30 PM 77.0 °F - 69.8 °F 78% 29.92 in 6.2 mi SSE 5.8 mph - N/A   Mostly Cloudy
9:00 PM 77 °F - 70 °F 72% 29.94 in - South 4.6 mph - -   Overcast
9:00 PM 77.0 °F - 69.8 °F 78% 29.92 in 6.2 mi South 4.6 mph - N/A   Overcast
9:30 PM 77.0 °F - 69.8 °F 78% 29.92 in 6.2 mi SSE 6.9 mph - N/A   Overcast
10:00 PM 77 °F - 70 °F 73% 29.95 in - South 6.9 mph - -  
10:00 PM 77.0 °F - 69.8 °F 78% 29.95 in 6.2 mi South 6.9 mph - N/A   Overcast
10:30 PM 77.0 °F - 69.8 °F 78% 29.95 in 6.2 mi South 8.1 mph - N/A   Overcast
11:00 PM 77.0 °F - 69.8 °F 78% 29.92 in 6.2 mi South 6.9 mph - N/A   Overcast